, AK

(GMT )
Eureka

Weather History for PAZK - September, 2012

Change the Weather History Date:

Saturday, September 22, 2012

  Actual Average Record
Temperature  
Mean Temperature 48 °F -  
Max Temperature 55 °F 38 °F 55 °F (2012)
Min Temperature 42 °F 27 °F 19 °F (1996)
Degree Days  
Heating Degree Days 16    
Moisture  
Dew Point 38 °F    
Average Humidity 63    
Maximum Humidity 82    
Minimum Humidity 51    
Precipitation  
Precipitation 0.00 in - - ()
Sea Level Pressure  
Sea Level Pressure 29.54 in    
Wind  
Wind Speed 10 mph (ESE)    
Max Wind Speed 18 mph    
Max Gust Speed 32 mph    
Visibility 10 miles    
Events      
Averages and records for this station are not official NWS values.
T = Trace of Precipitation, MM = Missing Value Source: NWS Daily Summary

Daily Weather History Graph

Daily Weather History Graph

Search for Another Location

Airport or City:

Trip Planner

Search our weather history database for the weather conditions in past years. The results will help you decide how hot, cold, wet, or windy it might be!

Date:

Astronomy

Sep. 22, 2012 Rise Set
Actual Time 7:34 AM AKDT 7:46 PM AKDT
Civil Twilight 6:49 AM AKDT 8:30 PM AKDT
Nautical Twilight 5:56 AM AKDT 9:23 PM AKDT
Astronomical Twilight 4:56 AM AKDT 10:22 PM AKDT
Moon 4:52 PM AKDT (9/22) 11:13 PM AKDT (9/22)
Length of Visible Light 13h 40m
Length of Day
12h 12m
Waxing Crescent, 50% of the Moon is Illuminated
Sep 22
Waxing Crescent
Sep 29
Full
Oct 7
Last Quarter
Oct 15
New
Oct 21
First Quarter

Hourly Weather History & Observations

Time (AKDT) Temp. Windchill Dew Point Humidity Pressure Visibility Wind Dir Wind Speed Gust Speed Precip Events Conditions
12:16 AM 48.2 °F - 39.2 °F 71% 29.70 in 10.0 mi East 8.1 mph - N/A   Clear
12:36 AM 48.2 °F - 41.0 °F 76% 29.69 in 10.0 mi ENE 8.1 mph - N/A   Clear
12:56 AM 48.2 °F - 41.0 °F 76% 29.67 in 10.0 mi ENE 12.7 mph 17.3 mph N/A   Clear
1:16 AM 48.2 °F - 41.0 °F 76% 29.67 in 10.0 mi ENE 11.5 mph 19.6 mph N/A   Clear
1:36 AM 48.2 °F - 41.0 °F 76% 29.67 in 10.0 mi East 9.2 mph - N/A   Clear
1:56 AM 50.0 °F - 41.0 °F 71% 29.66 in 10.0 mi ESE 10.4 mph 17.3 mph N/A   Clear
2:16 AM 51.8 °F - 41.0 °F 67% 29.66 in 10.0 mi SSE 12.7 mph 18.4 mph N/A   Clear
2:36 AM 53.6 °F - 41.0 °F 62% 29.65 in 10.0 mi South 17.3 mph 32.2 mph N/A   Clear
2:56 AM 51.8 °F - 39.2 °F 62% 29.65 in 10.0 mi East 4.6 mph - N/A   Scattered Clouds
3:16 AM 50.0 °F - 41.0 °F 71% 29.65 in 10.0 mi East 4.6 mph - N/A   Mostly Cloudy
3:36 AM 50.0 °F - 41.0 °F 71% 29.63 in 10.0 mi East 4.6 mph - N/A   Scattered Clouds
3:56 AM 50.0 °F - 41.0 °F 71% 29.62 in 10.0 mi East 8.1 mph - N/A   Clear
4:16 AM 51.8 °F - 39.2 °F 62% 29.60 in 10.0 mi East 8.1 mph - N/A   Clear
4:36 AM 51.8 °F - 39.2 °F 62% 29.60 in 10.0 mi ESE 6.9 mph - N/A   Clear
4:56 AM 50.0 °F - 39.2 °F 66% 29.60 in 10.0 mi ESE 10.4 mph - N/A   Mostly Cloudy
5:16 AM 50.0 °F - 39.2 °F 66% 29.59 in 10.0 mi East 13.8 mph 19.6 mph N/A   Overcast
5:36 AM 50.0 °F - 41.0 °F 71% 29.59 in 10.0 mi East 13.8 mph 17.3 mph N/A   Overcast
5:56 AM 48.2 °F - 42.8 °F 82% 29.57 in 10.0 mi East 13.8 mph 25.3 mph N/A   Overcast
6:16 AM 48.2 °F - 42.8 °F 82% 29.56 in 10.0 mi East 13.8 mph 20.7 mph N/A   Overcast
6:36 AM 48.2 °F - 42.8 °F 82% 29.56 in 10.0 mi East 15.0 mph 21.9 mph N/A   Overcast
6:56 AM 50.0 °F - 42.8 °F 76% 29.55 in 10.0 mi East 17.3 mph 23.0 mph N/A   Overcast
7:16 AM 50.0 °F - 42.8 °F 76% 29.54 in 10.0 mi East 13.8 mph 19.6 mph N/A   Overcast
7:36 AM 50.0 °F - 42.8 °F 76% 29.54 in 10.0 mi East 16.1 mph - N/A   Overcast
7:56 AM 50.0 °F - 41.0 °F 71% 29.53 in 10.0 mi East 10.4 mph - N/A   Overcast
8:16 AM 51.8 °F - 39.2 °F 62% 29.53 in 10.0 mi ESE 11.5 mph 19.6 mph N/A   Mostly Cloudy
8:36 AM 53.6 °F - 37.4 °F 54% 29.54 in 10.0 mi East 5.8 mph - N/A   Mostly Cloudy
8:56 AM 53.6 °F - 37.4 °F 54% 29.54 in 10.0 mi SSE 18.4 mph 24.2 mph N/A   Overcast
9:16 AM 53.6 °F - 37.4 °F 54% 29.54 in 10.0 mi ESE 9.2 mph - N/A   Overcast
9:36 AM 55.4 °F - 39.2 °F 54% 29.54 in 10.0 mi East 15.0 mph 18.4 mph N/A   Overcast
9:56 AM 53.6 °F - 39.2 °F 58% 29.54 in 10.0 mi ESE 11.5 mph 16.1 mph N/A   Overcast
10:16 AM 53.6 °F - 39.2 °F 58% 29.54 in 10.0 mi South 6.9 mph - N/A   Overcast
10:36 AM 53.6 °F - 39.2 °F 58% 29.53 in 10.0 mi SE 8.1 mph - N/A   Mostly Cloudy
10:56 AM 55.4 °F - 39.2 °F 54% 29.52 in 10.0 mi East 8.1 mph - N/A   Overcast
11:16 AM 53.6 °F - 39.2 °F 58% 29.51 in 10.0 mi East 15.0 mph - N/A   Mostly Cloudy
11:36 AM 53.6 °F - 39.2 °F 58% 29.52 in 10.0 mi SE 12.7 mph 18.4 mph N/A   Overcast
11:56 AM 55.4 °F - 37.4 °F 51% 29.53 in 10.0 mi SSE 15.0 mph 20.7 mph N/A   Overcast
12:16 PM 55.4 °F - 37.4 °F 51% 29.52 in 10.0 mi ESE 6.9 mph 20.7 mph N/A   Overcast
12:36 PM 53.6 °F - 41.0 °F 62% 29.52 in 10.0 mi East 4.6 mph - N/A   Overcast
12:56 PM 55.4 °F - 39.2 °F 54% 29.51 in 10.0 mi SSE 13.8 mph 19.6 mph N/A   Overcast
1:16 PM 55.4 °F - 37.4 °F 51% 29.51 in 10.0 mi SSE 11.5 mph 23.0 mph N/A   Overcast
1:36 PM 55.4 °F - 39.2 °F 54% 29.52 in 10.0 mi South 17.3 mph 20.7 mph N/A   Overcast
1:56 PM 53.6 °F - 37.4 °F 54% 29.52 in 10.0 mi SSE 12.7 mph 23.0 mph N/A   Overcast
2:16 PM 55.4 °F - 37.4 °F 51% 29.51 in 10.0 mi SSE 9.2 mph 17.3 mph N/A   Overcast
2:36 PM 55.4 °F - 37.4 °F 51% 29.51 in 10.0 mi SSE 11.5 mph - N/A   Overcast
2:56 PM 55.4 °F - 37.4 °F 51% 29.50 in 10.0 mi SE 12.7 mph 16.1 mph N/A   Overcast
3:16 PM 55.4 °F - 37.4 °F 51% 29.50 in 10.0 mi South 10.4 mph - N/A   Overcast
3:36 PM 53.6 °F - 37.4 °F 54% 29.50 in 10.0 mi SSE 12.7 mph 19.6 mph N/A   Overcast
3:56 PM 53.6 °F - 37.4 °F 54% 29.51 in 10.0 mi South 9.2 mph 17.3 mph N/A   Overcast
4:16 PM 51.8 °F - 37.4 °F 58% 29.50 in 10.0 mi SSE 10.4 mph 16.1 mph N/A   Overcast
4:36 PM 53.6 °F - 37.4 °F 54% 29.51 in 7.0 mi SE 9.2 mph 16.1 mph N/A   Overcast
4:56 PM 51.8 °F - 35.6 °F 54% 29.50 in 10.0 mi SE 8.1 mph - N/A   Overcast
5:16 PM 53.6 °F - 35.6 °F 51% 29.51 in 10.0 mi SE 9.2 mph - N/A   Overcast
5:36 PM 53.6 °F - 35.6 °F 51% 29.50 in 10.0 mi SE 6.9 mph - N/A   Overcast
5:56 PM 53.6 °F - 35.6 °F 51% 29.50 in 10.0 mi South 12.7 mph 17.3 mph N/A   Overcast
6:16 PM 51.8 °F - 35.6 °F 54% 29.50 in 10.0 mi South 11.5 mph 17.3 mph N/A   Overcast
6:36 PM 51.8 °F - 35.6 °F 54% 29.50 in 10.0 mi SSE 6.9 mph - N/A   Overcast
6:56 PM 51.8 °F - 35.6 °F 54% 29.49 in 10.0 mi SE 6.9 mph - N/A   Overcast
7:16 PM 50.0 °F - 35.6 °F 58% 29.49 in 10.0 mi SE 5.8 mph - N/A   Overcast
7:36 PM 48.2 °F - 35.6 °F 62% 29.48 in 10.0 mi East 4.6 mph - N/A   Overcast
7:56 PM 48.2 °F - 35.6 °F 62% 29.49 in 10.0 mi SE 3.5 mph - N/A   Overcast
8:16 PM 46.4 °F 44.3 °F 33.8 °F 62% 29.48 in 10.0 mi East 4.6 mph - N/A   Mostly Cloudy
8:36 PM 44.6 °F 42.2 °F 35.6 °F 71% 29.48 in 10.0 mi ENE 4.6 mph - N/A   Scattered Clouds
8:56 PM 44.6 °F 42.2 °F 35.6 °F 71% 29.48 in 10.0 mi ENE 4.6 mph - N/A   Scattered Clouds
9:16 PM 46.4 °F 44.3 °F 33.8 °F 62% 29.47 in 10.0 mi SSW 4.6 mph - N/A   Scattered Clouds
9:36 PM 42.8 °F 41.1 °F 35.6 °F 76% 29.47 in 10.0 mi North 3.5 mph - N/A   Scattered Clouds
9:56 PM 42.8 °F 40.1 °F 35.6 °F 76% 29.47 in 10.0 mi North 4.6 mph - N/A   Mostly Cloudy
10:16 PM 42.8 °F 38.0 °F 35.6 °F 76% 29.48 in 10.0 mi East 8.1 mph - N/A   Overcast
10:36 PM 46.4 °F 42.9 °F 33.8 °F 62% 29.48 in 10.0 mi SE 6.9 mph - N/A   Overcast
10:56 PM 44.6 °F 40.2 °F 33.8 °F 66% 29.47 in 10.0 mi SE 8.1 mph - N/A   Overcast
11:16 PM 44.6 °F 39.7 °F 33.8 °F 66% 29.47 in 10.0 mi ESE 9.2 mph - N/A   Overcast
11:36 PM 46.4 °F 40.4 °F 33.8 °F 62% 29.47 in 10.0 mi ESE 13.8 mph 24.2 mph N/A   Overcast
11:56 PM 46.4 °F 41.5 °F 33.8 °F 62% 29.48 in 10.0 mi SE 10.4 mph 21.9 mph N/A   Overcast